lobby

Flag for U.S.A. Weather past 2 weeks in Denver, Colorado, U.S.A.

Now
57 °F

Passing clouds.


Feels Like: 55 °F
Forecast: 54 / 78 °F
Wind: 10 mph from Southeast

Location: Buckley Air Force Base

Current Time: Sep 23, 2014 at 3:06:06 AM

Latest Report: Sep 23, 2014 at 1:58 AM


Visibility: 10 mi

Pressure: 29.95 "Hg

Humidity: 75%

Dew point: 50 °F

Location of DenverLocation

Historic Weather in Denver — Graph

°F

Denver temperature yesterday

Maximum temperature yesterday: 78 °F (at 1:58 PM)
Minimum temperature yesterday: 56 °F (at 11:58 PM)
Average temperature yesterday: 63 °F

Past Weeks' High & Low Weather Summary

 TemperatureHumidityPressure
High88 °F (Sep 17, 3:58 PM)100% (Sep 10, 6:58 AM)30.51 "Hg (Sep 10, 6:58 AM)
Low32 °F (Sep 12, 5:58 AM)14% (Sep 14, 1:58 PM)29.66 "Hg (Sep 9, 12:58 PM)
Average62 °F58%30.00 "Hg
* Reported Sep 8 1:58 AM — Sep 23 1:58 AM, Denver, Weather by CustomWeather, © 2014

Note: Actual official high and low records may vary slightly from our data, if they occured in-between our weather recording intervals... More about our weather records

Advertising

Denver weather history for previous 24 hours

 ConditionsComfort  
Time TempWeatherWind HumidityBarometerVisibility
1:58 AM
Sep 23
57 °FPassing clouds.10 mph75%29.95 "Hg10 mi
12:58 AM55 °FPassing clouds.12 mph81%29.98 "Hg10 mi
11:58 PM
Sep 22
56 °FPassing clouds.7 mph81%29.99 "Hg10 mi
10:58 PM59 °FPassing clouds.6 mph73%29.98 "Hg10 mi
9:58 PM59 °FPassing clouds.8 mph77%29.99 "Hg10 mi
8:58 PM57 °FPassing clouds.8 mph83%30.01 "Hg10 mi
7:58 PM58 °FPartly cloudy.12 mph82%29.99 "Hg10 mi
6:58 PM61 °FThundershowers. Broken clouds.9 mph76%29.96 "Hg10 mi
6:49 PM61 °FThundershowers. Broken clouds.7 mph77%30.13 "Hg10 mi
5:58 PM71 °FScattered showers. Broken clouds.3 mph49%29.94 "Hg10 mi
4:58 PM73 °FBroken clouds.7 mph42%29.92 "Hg10 mi
3:58 PM68 °FBroken clouds.10 mph56%29.94 "Hg10 mi
2:58 PM73 °FThundershowers. Partly sunny.17 mph52%29.95 "Hg10 mi
1:58 PM78 °FBroken clouds.9 mph41%29.93 "Hg10 mi
12:58 PM72 °FBroken clouds.9 mph53%29.98 "Hg10 mi
11:58 AM70 °FBroken clouds.12 mph55%30.00 "Hg10 mi
10:58 AM64 °FBroken clouds.9 mph82%30.04 "Hg10 mi
9:58 AM58 °FLight rain. Partly sunny.6 mph91%30.09 "Hg10 mi
8:58 AM60 °FLight rain. Cloudy.13 mph74%30.08 "Hg10 mi
7:58 AM60 °FPartly sunny.15 mph70%30.03 "Hg10 mi
6:58 AM59 °FPassing clouds.18 mph68%30.03 "Hg10 mi
5:58 AM60 °FPassing clouds.15 mph66%30.03 "Hg10 mi
4:58 AM60 °FPassing clouds.20 mph63%30.04 "Hg10 mi
3:58 AM59 °FPassing clouds.21 mph61%30.03 "Hg10 mi
Weather by CustomWeather, © 2014

See weather overviewHow to use our weather pages